Flag for France Weather past 2 weeks in Le Havre, France

Now
64 °F

Scattered clouds.


Feels Like: 64 °F
Forecast: 57 / 69 °F
Wind: 15 mph from North

Location: La Heve

Current Time: Aug 3, 2015 at 7:50:49 PM

Latest Report: Aug 3, 2015 at 7:30 PM


Visibility: N/A

Pressure: 29.89 "Hg

Humidity: 88%

Dew point: 61 °F

Location of Le HavreLocation

Historic Weather in Le Havre — Graph

°F

Le Havre temperature yesterday

Maximum temperature yesterday: 82 °F (at 4:30 PM)
Minimum temperature yesterday: 46 °F (at 4:30 AM)
Average temperature yesterday: 67 °F

Past Weeks' High & Low Weather Summary

 TemperatureHumidityPressure
High82 °F (Aug 2, 4:30 PM)100% (Jul 20, 9:00 AM)30.15 "Hg (Jul 20, 9:00 AM)
Low46 °F (Jul 31, 4:30 AM)24% (Aug 2, 4:00 PM)29.56 "Hg (Jul 24, 9:00 PM)
Average62 °F74%29.94 "Hg
* Reported Jul 19 6:00 PM — Aug 3 6:30 PM, Le Havre, Weather by CustomWeather, © 2015

Note: Actual official high and low records may vary slightly from our data, if they occured in-between our weather recording intervals... More about our weather records

Advertising

Le Havre weather history for previous 24 hours

 ConditionsComfort  
Time TempWeatherWind HumidityBarometerVisibility
6:30 PM
Mon, Aug 3
79 °FPassing clouds.8 mph51%29.89 "HgN/A
6:00 PM79 °FPassing clouds.9 mph51%29.89 "HgN/A
5:30 PM77 °FSunny.10 mph54%29.92 "Hg10 mi
5:00 PM77 °FSunny.13 mph54%29.92 "Hg10 mi
4:30 PM79 °FSunny.15 mph51%29.92 "Hg10 mi
4:00 PM79 °FPassing clouds.13 mph54%29.92 "HgN/A
3:30 PM77 °FPassing clouds.12 mph57%29.92 "HgN/A
3:00 PM77 °FSunny.12 mph57%29.92 "Hg10 mi
2:30 PM75 °FPassing clouds.10 mph57%29.95 "HgN/A
2:00 PM75 °FPassing clouds.9 mph57%29.95 "HgN/A
1:30 PM75 °FPassing clouds.10 mph57%29.95 "HgN/A
1:00 PM73 °FPassing clouds.10 mph61%29.95 "HgN/A
12:30 PM72 °FPassing clouds.10 mph65%29.95 "HgN/A
11:30 AM70 °FPassing clouds.8 mph69%29.95 "HgN/A
11:00 AM68 °FSunny.10 mph73%29.95 "Hg10 mi
10:30 AM70 °FPassing clouds.9 mph69%29.95 "HgN/A
10:00 AM66 °FOvercast.12 mph78%29.95 "HgN/A
9:30 AM66 °FOvercast.10 mph73%29.95 "HgN/A
9:00 AM64 °FPartly sunny.10 mph78%29.95 "HgN/A
8:30 AM64 °FOvercast.13 mph78%29.95 "HgN/A
8:00 AM64 °FScattered clouds.12 mph73%29.92 "HgN/A
7:30 AM64 °FClear.10 mph73%29.92 "Hg10 mi
7:00 AM64 °FClear.9 mph68%29.92 "Hg10 mi
5:30 AM66 °FClear.9 mph64%29.89 "Hg10 mi
5:00 AM68 °FClear.12 mph60%29.89 "Hg10 mi
4:30 AM68 °FClear.12 mph56%29.89 "Hg10 mi
4:00 AM68 °FClear.7 mph56%29.89 "Hg10 mi
3:30 AM70 °FClear.8 mph53%29.89 "Hg10 mi
3:00 AM72 °FClear.7 mph47%29.89 "Hg10 mi
2:30 AM72 °FClear.8 mph47%29.89 "Hg10 mi
2:00 AM72 °FPassing clouds.5 mph47%29.89 "HgN/A
1:30 AM73 °FClear.7 mph44%29.89 "Hg10 mi
1:00 AM73 °FClear.7 mph44%29.89 "Hg10 mi
12:30 AM73 °FClear.7 mph44%29.89 "Hg10 mi
12:00 AM75 °FClear.7 mph39%29.89 "Hg10 mi
11:30 PM
Sun, Aug 2
75 °FClear.5 mph39%29.89 "Hg10 mi
11:00 PM75 °FClear.5 mph39%29.89 "Hg10 mi
10:30 PM77 °FSunny.5 mph34%29.89 "Hg10 mi
10:00 PM79 °FSunny.6 mph32%29.89 "Hg10 mi
9:30 PM81 °FSunny.6 mph28%29.89 "Hg10 mi
9:00 PM81 °FSunny.6 mph28%29.89 "Hg10 mi
8:30 PM82 °FSunny.5 mph26%29.89 "Hg10 mi
8:00 PM81 °FPassing clouds.5 mph28%29.92 "HgN/A
7:30 PM81 °FPassing clouds.5 mph28%29.92 "HgN/A
7:00 PM82 °FPassing clouds.6 mph25%29.92 "HgN/A
Weather by CustomWeather, © 2015

See weather overviewHow to use our weather pages